CZ-6A DEB

Satellite information

Favourite Embed

Satellite Type and Status

DEBRISIN ORBIT

Key statistics

Satellite CZ-6A DEB at a glance.

Uptime

1086

Days in orbit

Revolutions

≈ 13.9

Per day

Orbit

SSO

Sun Synchronous Orbit

Inclination

98.8

Latest

Satellite identification and parameters

Extended collection of information and parameters for CZ-6A DEB.

Object identification

Identified? True

Debris? True

Object name: CZ-6A DEB

International designator: 2022-151AEH

Object number (NORAD): 56609

Object ID (CCSDS): 56609

Country: PEOPLES REPUBLIC OF CHINA (PRC)

Current information (Y/N): Y

RCS size: SMALL

Orbital parameters

Period: 103.24 minutes

Inclination: 98.8487 deg

SMA: 7289.985 km

Apoapsis: 1003.285 km

Periapsis: 820.415 km

RAAN: 271.6426 deg

Eccentricy: 0.0125426

Argument of periapsis: 332.0351 deg

Mean anomaly: 27.4109 deg

Mean motion: 13.94802776 rev/day

Mean motion (dot): 0.00002517 rev/day2

B* drag term: 0.001786864 1/REarth

Two-line elements (TLE)

Creation date: Oct. 31, 2025, 3 a.m.

Reference frame: TEME

Reference center: EARTH

Epoch: Oct. 30, 2025, 4:57 p.m. UTC

TLE line 0: 0 CZ-6A DEB

TLE line 1: 1 56609U 22151AEH 25303.70657761 .00002517 00000-0 17869-2 0 9997

TLE line 2: 2 56609 98.8487 271.6426 0125426 332.0351 27.4109 13.94802776127995

Live tracking on map

Real-time ground track for satellite CZ-6A DEB.

In-orbit conjunctions

A list of the most updated potential collisions computed for object CZ-6A DEB.

Target Orbit TCA Probability of collision Miss distance Type
FENGYUN 1C DEB SSO 2025-08-19 13:13:13 0.0002443174 275.0 (m) DEBRIS
FENGYUN 1C DEB SSO 2024-11-20 11:18:40 0.0001612695 201.0 (m) DEBRIS

Associated space launch

Chinese satellite reported for atmospheric/ocean/environmental/spatial parameter research purposes, details TBD.

CZ-6A DEB was lifted into orbit during the mission ‘Long March 6A | Yunhai 3’, on board a Long March 6A space rocket.

The launch took place on Nov. 11, 2022, 10:52 p.m. from Launch Complex 9A.

For more information about the launch, click the button.

Launch to space Long March 6A | Yunhai 3
Long March 6A | Yunhai 3

Agency: N/A

Status: Launch Successful

Launch date: Nov. 11, 2022, 10:52 p.m. UTC

Rocket: Long March 6A

Launch pad: Launch Complex 9A

Location: Taiyuan Satellite Launch Center, People's Republic of China

...

Latest news about this satellite

There are no fresh news available about this satellite. Check back as we update our databases every day.


Newsletter sign-up

Weekly statistics, charts and insights to help you stay on top of the space industry.